Plattsburgh, NY

7:06 AM EDT on April 28, 2017 (GMT -0400)
Plattsburgh International

Weather History for KPBG - April, 2014

Change the Weather History Date:

Thursday, April 10, 2014

  Actual Average Record
Temperature  
Mean Temperature 43 °F 40 °F  
Max Temperature 62 °F 50 °F 81 °F (2017)
Min Temperature 23 °F 30 °F 20 °F (1974)
Degree Days  
Heating Degree Days 22 25  
Month to date heating degree days 264 270  
Since 1 July heating degree days 7455 6953  
Cooling Degree Days 0 0  
Month to date cooling degree days 0 0  
Year to date cooling degree days 0 0  
Moisture  
Dew Point 26 °F    
Average Humidity 54    
Maximum Humidity 75    
Minimum Humidity 32    
Precipitation  
Precipitation T in - 1.04 in (1971)
Month to date precipitation 0.85  
Year to date precipitation 2.84  
Sea Level Pressure  
Sea Level Pressure 29.86 in    
Wind  
Wind Speed 13 mph (SSE)    
Max Wind Speed 28 mph    
Max Gust Speed 36 mph    
Visibility 10 miles    
Events      
T = Trace of Precipitation, MM = Missing Value Source: NWS Daily Summary

Daily Weather History Graph

Daily Weather History Graph

Search for Another Location

Airport or City:

Trip Planner

Search our weather history database for the weather conditions in past years. The results will help you decide how hot, cold, wet, or windy it might be!

Date:

Astronomy

Apr. 10, 2014 Rise Set
Actual Time 6:18 AM EDT 7:32 PM EDT
Civil Twilight 5:48 AM EDT 8:02 PM EDT
Nautical Twilight 5:12 AM EDT 8:38 PM EDT
Astronomical Twilight 4:34 AM EDT 9:17 PM EDT
Moon 3:03 PM EDT (4/10) 3:50 AM EDT (4/10)
Length of Visible Light 14h 14m
Length of Day
13h 14m
Waxing Gibbous, 79% of the Moon is Illuminated
Apr 10
Waxing Gibbous
Apr 15
Full
Apr 22
Last Quarter
Apr 29
New
May 6
First Quarter

Hourly Weather History & Observations

Time (EDT) Temp. Windchill Dew Point Humidity Pressure Visibility Wind Dir Wind Speed Gust Speed Precip Events Conditions
12:53 AM 26.1 °F - 19.0 °F 75% 29.94 in 10.0 mi Calm Calm - N/A   Clear
1:53 AM 26.1 °F 20.5 °F 19.0 °F 75% 29.95 in 10.0 mi South 4.6 mph - N/A   Clear
2:53 AM 26.1 °F 20.5 °F 19.0 °F 75% 29.95 in 10.0 mi South 4.6 mph - N/A   Clear
3:53 AM 26.1 °F 21.9 °F 18.0 °F 71% 29.96 in 10.0 mi South 3.5 mph - N/A   Clear
4:53 AM 26.1 °F 18.4 °F 19.9 °F 78% 29.97 in 10.0 mi South 6.9 mph - N/A   Clear
5:53 AM 26.1 °F 19.4 °F 19.9 °F 78% 29.99 in 10.0 mi SSE 5.8 mph - N/A   Clear
6:53 AM 28.0 °F - 21.9 °F 78% 29.99 in 10.0 mi Calm Calm - N/A   Clear
7:53 AM 33.1 °F 28.7 °F 24.1 °F 70% 30.00 in 10.0 mi SSE 4.6 mph - N/A   Clear
8:53 AM 36.0 °F 27.5 °F 25.0 °F 64% 29.99 in 10.0 mi SSE 12.7 mph - 0.00 in   Clear
10:53 AM 45.0 °F 37.9 °F 27.0 °F 49% 29.95 in 10.0 mi SE 16.1 mph - N/A   Mostly Cloudy
11:53 AM 46.9 °F - 27.0 °F 46% 29.92 in 10.0 mi SSE 16.1 mph - N/A   Scattered Clouds
12:53 PM 50.0 °F - 28.0 °F 43% 29.88 in 10.0 mi SSE 21.9 mph 28.8 mph N/A   Clear
1:53 PM 54.0 °F - 28.0 °F 37% 29.84 in 10.0 mi SSE 24.2 mph 34.5 mph N/A   Clear
2:53 PM 54.0 °F - 30.0 °F 40% 29.80 in 10.0 mi SSE 26.5 mph 34.5 mph N/A   Partly Cloudy
3:53 PM 61.0 °F - 32.0 °F 34% 29.75 in 10.0 mi SSE 20.7 mph 29.9 mph N/A   Clear
4:53 PM 57.9 °F - 30.9 °F 36% 29.73 in 10.0 mi SE 17.3 mph - N/A   Clear
5:53 PM 61.0 °F - 30.0 °F 31% 29.72 in 10.0 mi South 19.6 mph 31.1 mph N/A   Clear
7:53 PM 57.9 °F - 30.0 °F 35% 29.70 in 10.0 mi South 16.1 mph - N/A   Clear
8:53 PM 57.9 °F - 30.0 °F 35% 29.72 in 10.0 mi South 13.8 mph 24.2 mph N/A   Partly Cloudy
9:53 PM 55.9 °F - 30.9 °F 39% 29.74 in 10.0 mi SSE 13.8 mph - N/A   Mostly Cloudy
10:53 PM 55.0 °F - 30.9 °F 40% 29.75 in 10.0 mi South 12.7 mph - N/A   Overcast
11:53 PM 54.0 °F - 30.9 °F 41% 29.74 in 10.0 mi South 12.7 mph 21.9 mph N/A   Overcast